Find Starlink 3766

NORAD ID: 52296 Int'l Des: 2022-041 Owner: SPXS Country: US Constellation: starlink operational
LEOCIRCULAR

当前视图

正在加载3D地球...

关于 Starlink 3766

正在加载描述...

即将过境

Passes for default location (London). Set your location on the main map for personalized predictions.

高度历史

Loading altitude history...

两行轨道根数

1 52296U 22041AM 26150.01149480 .00002299 00000-0 16249-3 0 9991
2 52296 53.1991 94.0487 0001771 67.8185 292.2995 15.08838345226785
Epoch: May 30, 2026 • Age: 17 hours

当前状态

高度 540.0 km
速度 7.60 km/s
星下点 17.35°N, 116.22°E
发射日期 Apr 21, 2022
运行时间 4.1 years
类型 internet

技术详情

分类 Payload
质量 297.00 kg
干质量 275.00 kg
总质量 297.00 kg
长度 0.20 m
直径 2.80 m
跨度 9.00 m
形状 Box + pan
制造商 SPXS
平台类型 Starlink
阶段状态 In Orbit
所有者/国家 SPXS/US

Most Searched